This is the latest recevied weather packets stored in our database for station/object SP5MRF. If no packets are shown the sender has not sent any weather packets the latest 10 day(s).
| Time | Temp. | Humidity | Pressure | Rain* | Wind** | Luminosity | Snow |
|---|---|---|---|---|---|---|---|
| 1787830620 | 25.56° C | 43% | 1019.5 hPa | 0 mm | - | - | - |
| 1787830141 | 25.56° C | 44% | 1019.4 hPa | 0 mm | - | - | - |
| 1787829180 | 25.56° C | 44% | 1019.7 hPa | 0 mm | - | - | - |
| 1787828220 | 25.56° C | 44% | 1019.7 hPa | 0 mm | - | - | - |
| 1787827740 | 25.56° C | 44% | 1019.9 hPa | 0 mm | - | - | - |
| 1787826780 | 25.56° C | 46% | 1019.8 hPa | 0 mm | - | - | - |
| 1787826302 | 25° C | 47% | 1019.9 hPa | 0 mm | - | - | - |
| 1787825820 | 25° C | 47% | 1020 hPa | 0 mm | - | - | - |
| 1787825341 | 25.56° C | 46% | 1020 hPa | 0 mm | - | - | - |
| 1787824860 | 25° C | 47% | 1020 hPa | 0 mm | - | - | - |
| 1787824380 | 24.44° C | 50% | 1020 hPa | 0 mm | - | - | - |
| 1787823568 | 21.67° C | 60% | 1020.5 hPa | 0 mm | - | - | - |
| 1787823422 | 23.89° C | 51% | 1020.1 hPa | 0 mm | - | - | - |
| 1787822946 | 21.11° C | 63% | 1020.4 hPa | 0 mm | - | - | - |
| 1787822940 | 23.33° C | 52% | 1020.1 hPa | 0 mm | - | - | - |
| 1787822460 | 22.78° C | 54% | 1020.1 hPa | 0 mm | - | - | - |
| 1787821981 | 22.22° C | 53% | 1020 hPa | 0 mm | - | - | - |
| 1787821704 | 18.89° C | 67% | 1020.4 hPa | 0 mm | - | - | - |
| 1787821500 | 22.78° C | 53% | 1020.3 hPa | 0 mm | - | - | - |
| 1787821021 | 22.78° C | 53% | 1020.2 hPa | 0 mm | - | - | - |
| 1787820062 | 22.22° C | 56% | 1020.1 hPa | 0 mm | - | - | - |
| 1787819581 | 22.22° C | 56% | 1020.4 hPa | 0 mm | - | - | - |
| 1787818621 | 21.67° C | 58% | 1020.5 hPa | 0 mm | - | - | - |
| 1787818141 | 21.67° C | 58% | 1020.4 hPa | 0 mm | - | - | - |
| 1787817661 | 21.67° C | 60% | 1020.5 hPa | 0 mm | - | - | - |
* Rain latest hour (hover to see other rain measurements)
** Current wind speed in m/s (hover to see current wind gust speed)